[TLELIST] Archives

 

[TLELIST] Current TLEs

November 2nd 2025 PDT

0 HST 1 20580U 90037B 25305.37367370 .00008514 00000-0 30155-3 0 9990 2 20580 28.4669 193.8827 0001953 126.3947 233.6828 15.27262832753667 0 ISS (ZARYA) 1 25544U 98067A 25305.52050362 .00011974 00000-0 21987-3 0 9990 2 25544 51.6344 346.5423 0004933 5.4437 354.6605 15.49679820536468 0 CXO 1 25867U 99040B 25306.94914393 .00000860 00000-0 00000-0 0 9992 2 25867 52.2511 124.0340 8210183 310.6072 0.2637 0.37806171 16460 ...Continue Reading

[TLELIST] Current TLEs

November 1st 2025 PDT

0 HST 1 20580U 90037B 25304.78556720 .00009322 00000-0 33100-3 0 9994 2 20580 28.4669 197.8810 0001996 121.0910 238.9881 15.27252670753578 0 ISS (ZARYA) 1 25544U 98067A 25304.61768088 .00014957 00000-0 27275-3 0 9990 2 25544 51.6344 351.0134 0004897 1.8672 358.2334 15.49657005536323 0 CXO 1 25867U 99040B 25306.94914393 .00000860 00000-0 00000-0 0 9992 2 25867 52.2511 124.0340 8210183 310.6072 0.2637 0.37806171 16460 ...Continue Reading

[TLELIST] Current TLEs

October 31st 2025 PDT

0 HST 1 20580U 90037B 25304.00141855 .00010055 00000-0 35776-3 0 9994 2 20580 28.4669 203.2120 0002032 113.4940 246.5868 15.27238201753455 0 ISS (ZARYA) 1 25544U 98067A 25304.16626396 .00017194 00000-0 31236-3 0 9993 2 25544 51.6343 353.2496 0004911 359.9780 0.1208 15.49645314536256 0 CXO 1 25867U 99040B 25306.94914393 .00000860 00000-0 00000-0 0 9992 2 25867 52.2511 124.0340 8210183 310.6072 0.2637 0.37806171 16460 ...Continue Reading

[TLELIST] Current TLEs

October 30th 2025 PDT

0 HST 1 20580U 90037B 25303.02122123 .00009815 00000-0 34925-3 0 9999 2 20580 28.4669 209.8759 0002070 104.0895 255.9930 15.27218674753302 0 ISS (ZARYA) 1 25544U 98067A 25303.19892820 .00018950 00000-0 34377-3 0 9992 2 25544 51.6344 358.0397 0004876 356.3572 3.7380 15.49612377536107 0 CXO 1 25867U 99040B 25304.30481514 .00000945 00000-0 00000-0 0 9998 2 25867 52.1821 124.1649 8211418 310.5885 0.2547 0.37801472 16457 ...Continue Reading

[TLELIST] Current TLEs

October 29th 2025 PDT

0 HST 1 20580U 90037B 25301.45287957 .00009418 00000-0 33512-3 0 9991 2 20580 28.4671 220.5377 0002110 87.6959 272.3877 15.27189683753066 0 ISS (ZARYA) 1 25544U 98067A 25301.52216109 .00016210 00000-0 29595-3 0 9990 2 25544 51.6346 6.3420 0004740 349.4592 10.6297 15.49553329535849 0 CXO 1 25867U 99040B 25304.30481514 .00000945 00000-0 00000-0 0 9998 2 25867 52.1821 124.1649 8211418 310.5885 0.2547 0.37801472 16457 ...Continue Reading

[TLELIST] Current TLEs

October 28th 2025 PDT

0 HST 1 20580U 90037B 25300.93009246 .00009662 00000-0 34408-3 0 9992 2 20580 28.4672 224.0916 0002144 83.0893 276.9946 15.27181288752989 0 ISS (ZARYA) 1 25544U 98067A 25300.68375554 .00015570 00000-0 28487-3 0 9993 2 25544 51.6344 10.4932 0004705 346.2107 13.8753 15.49527127535714 0 CXO 1 25867U 99040B 25301.66016621 .00000932 00000-0 00000-0 0 9993 2 25867 52.1339 124.2561 8214465 310.6062 0.1647 0.37799947 16440 ...Continue Reading

[TLELIST] Current TLEs

October 27th 2025 PDT

0 HST 1 20580U 90037B 25300.14590576 .00008748 00000-0 31098-3 0 9992 2 20580 28.4675 229.4219 0002136 75.7438 284.3394 15.27166615752865 0 ISS (ZARYA) 1 25544U 98067A 25300.16780669 .00014439 00000-0 26496-3 0 9994 2 25544 51.6344 13.0478 0004676 344.0892 15.9949 15.49510292535638 0 CXO 1 25867U 99040B 25301.66016621 .00000932 00000-0 00000-0 0 9993 2 25867 52.1339 124.2561 8214465 310.6062 0.1647 0.37799947 16440 ...Continue Reading

[TLELIST] Current TLEs

October 27th 2025 PDT

0 HST 1 20580U 90037B 25300.14590576 .00008748 00000-0 31098-3 0 9992 2 20580 28.4675 229.4219 0002136 75.7438 284.3394 15.27166615752865 0 ISS (ZARYA) 1 25544U 98067A 25300.16780669 .00014439 00000-0 26496-3 0 9994 2 25544 51.6344 13.0478 0004676 344.0892 15.9949 15.49510292535638 0 CXO 1 25867U 99040B 25301.66016621 .00000932 00000-0 00000-0 0 9993 2 25867 52.1339 124.2561 8214465 310.6062 0.1647 0.37799947 16440 ...Continue Reading

[TLELIST] Current TLEs

October 27th 2025 PDT

0 HST 1 20580U 90037B 25300.14590576 .00008748 00000-0 31098-3 0 9992 2 20580 28.4675 229.4219 0002136 75.7438 284.3394 15.27166615752865 0 ISS (ZARYA) 1 25544U 98067A 25300.16780669 .00014439 00000-0 26496-3 0 9994 2 25544 51.6344 13.0478 0004676 344.0892 15.9949 15.49510292535638 0 CXO 1 25867U 99040B 25301.66016621 .00000932 00000-0 00000-0 0 9993 2 25867 52.1339 124.2561 8214465 310.6062 0.1647 0.37799947 16440 ...Continue Reading

[TLELIST] Current TLEs

October 26th 2025 PDT

0 HST 1 20580U 90037B 25299.23101267 .00009097 00000-0 32384-3 0 9991 2 20580 28.4678 235.6409 0002167 65.9954 294.0868 15.27150496752725 0 ISS (ZARYA) 1 25544U 98067A 25299.20038895 .00014735 00000-0 27050-3 0 9999 2 25544 51.6346 17.8374 0004636 339.5768 20.5035 15.49479093535488 0 CXO 1 25867U 99040B 25301.66016621 .00000932 00000-0 00000-0 0 9993 2 25867 52.1339 124.2561 8214465 310.6062 0.1647 0.37799947 16440 ...Continue Reading
  • This mailing list is a public mailing list - anyone may join or leave, at any time.
  • This mailing list is announce-only.

International Space Station (ISS) / Hubble Space Telescope (HST) / Chandra X-Ray Observatory Orbital Data via EMAIL

Privacy Policy:

Private list